Hourly Data Report for October 23, 2014

All times are specified in Local Standard Time (LST). Add 1 hour to adjust for Daylight Saving Time where and when it is observed.

KAMLOOPS A
BRITISH COLUMBIA

50°42'09.000" N
120°26'55.000" W
345.30 m
1163781
71887
YKA

Download Data

Hourly Data (October 2014)
Hourly Data Report for October 23, 2014
Temp Definition
°C
Dew Point Temp Definition
°C
Rel Hum Definition
%
Wind Dir Definition
10's deg

Wind Spd Definition
km/h
Visibility Definition
km
Stn Press Definition
kPa
Hmdx Definition


Wind Chill Definition


Weather Definition


TIME
00:00 Legend Double Dagger 10.6 7.3 80 11 22 64.4 95.88     LegendNANA
01:00 Legend Double Dagger 12.2 5.2 62 7 22 64.4 95.96     Mostly Cloudy
02:00 Legend Double Dagger 13.2 3.4 51 36 2 64.4 95.92     LegendNANA
03:00 Legend Double Dagger 12.3 3.6 55 9 25 64.4 96.01     LegendNANA
04:00 Legend Double Dagger 10.9 2.8 57 8 28 64.4 96.11     Mostly Cloudy
05:00 Legend Double Dagger 11.1 2.2 54 3 20 64.4 96.24     LegendNANA
06:00 Legend Double Dagger 9.2 1.9 60 6 10 64.4 96.29     LegendNANA
07:00 Legend Double Dagger 8.6 2.0 63 5 14 64.4 96.36     Mostly Cloudy
08:00 Legend Double Dagger 9.0 2.8 65 20 4 64.4 96.45     LegendNANA
09:00 Legend Double Dagger 10.0 3.3 63 16 7 64.4 96.50     LegendNANA
10:00 Legend Double Dagger 11.2 3.0 57 10 15 64.4 96.45     Cloudy
11:00 Legend Double Dagger 11.1 3.4 59 7 12 64.4 96.44     Rain Showers
12:00 Legend Double Dagger 10.8 4.1 63 12 12 64.4 96.43     LegendNANA
13:00 Legend Double Dagger 10.1 5.5 73 11 16 64.4 96.41     Cloudy
14:00 Legend Double Dagger 10.1 5.5 73 10 14 64.4 96.43     LegendNANA
15:00 Legend Double Dagger 10.5 5.3 70 10 14 64.4 96.45     LegendNANA
16:00 Legend Double Dagger 10.6 5.4 70 8 7 64.4 96.51     Mostly Cloudy
17:00 Legend Double Dagger 10.1 3.4 63 10 15 64.4 96.54     LegendNANA
18:00 Legend Double Dagger 9.2 1.9 60 12 7 64.4 96.62     LegendNANA
19:00 Legend Double Dagger 9.7 0.9 54 18 5 64.4 96.69     Mainly Clear
20:00 Legend Double Dagger 9.0 0.0 53 2 5 64.4 96.78     LegendNANA
21:00 Legend Double Dagger 7.7 0.0 58 9 10 64.4 96.88     LegendNANA
22:00 Legend Double Dagger 7.3 0.1 60 36 3 64.4 96.98     Mostly Cloudy
23:00 Legend Double Dagger 7.5 0.3 60 32 5 64.4 97.10     LegendNANA

Notes on Data Quality.

Legend

  • E = Estimated
  • M = Missing
  • NA = Not Available
  • ‡ = Partner data that is not subject to review by the National Climate Archives
Date modified: